{"data":{"norad_id":69549,"epoch":"2026-09-20T00:31:14.602656Z","epoch_age_seconds":62954,"freshness":"FRESH","line1":"1 69549U 26135D   26263.02169679  .00014322  00000+0  44491-3 0  9995","line2":"2 69549  97.2841 290.6630 0001311 104.6209 255.5179 15.33459290 14921","mean_motion":15.3345929,"eccentricity":0.0001311,"inclination_deg":97.2841,"raan_deg":290.663,"arg_perigee_deg":104.6209,"mean_anomaly_deg":255.5179,"bstar":0.00044491,"rev_number":1492,"period_min":93.905329563721,"perigee_km":464.60345692523,"apogee_km":466.39785871911,"semimajor_km":6843.6376578222,"source":"CELESTRAK","updated_at":"2026-09-20T09:00:44.242202Z"}}